�������l�o���
Date,Time,MP-1(��Sv/h),MP-2(��Sv/h),MP-3(��Sv/h),MP-4(��Sv/h),MP-5(��Sv/h),MP-6(��Sv/h),MP-7(��Sv/h),MP-8(��Sv/h),����,����(m/s),���J
2017/10/21,00:00,0.870,1.362,0.885,1.644,1.082,0.493,0.882,0.824,���k��,7.2,�L
2017/10/21,00:10,0.870,1.365,0.886,1.648,1.082,0.493,0.882,0.822,���k��,8.1,�L
2017/10/21,00:20,0.872,1.367,0.887,1.652,1.082,0.491,0.882,0.824,���k��,8.0,��
2017/10/21,00:30,0.871,1.368,0.887,1.652,1.082,0.491,0.883,0.823,���k��,8.1,�L
2017/10/21,00:40,0.870,1.368,0.887,1.652,1.085,0.491,0.883,0.826,���k��,7.7,�L
2017/10/21,00:50,0.871,1.369,0.889,1.655,1.083,0.490,0.883,0.826,���k��,7.6,�L
2017/10/21,01:00,0.871,1.373,0.887,1.656,1.082,0.490,0.881,0.824,��,7.7,�L
2017/10/21,01:10,0.872,1.373,0.889,1.655,1.083,0.490,0.882,0.824,��,8.2,�L
2017/10/21,01:20,0.871,1.372,0.889,1.659,1.083,0.489,0.883,0.824,���k��,8.1,�L
2017/10/21,01:30,0.871,1.375,0.889,1.656,1.085,0.489,0.883,0.825,���k��,9.1,�L
2017/10/21,01:40,0.874,1.376,0.890,1.661,1.087,0.490,0.883,0.827,���k��,8.8,�L
2017/10/21,01:50,0.870,1.379,0.890,1.659,1.088,0.488,0.885,0.827,���k��,8.3,�L
2017/10/21,02:00,0.871,1.378,0.892,1.659,1.090,0.491,0.885,0.827,���k��,8.4,��
2017/10/21,02:10,0.872,1.380,0.890,1.658,1.092,0.489,0.885,0.828,���k��,8.6,��
2017/10/21,02:20,0.873,1.380,0.891,1.663,1.090,0.489,0.886,0.829,���k��,8.0,��
2017/10/21,02:30,0.872,1.380,0.891,1.662,1.093,0.488,0.885,0.829,��,8.0,��
2017/10/21,02:40,0.873,1.378,0.891,1.663,1.094,0.490,0.887,0.828,���k��,7.6,�L
2017/10/21,02:50,0.872,1.380,0.893,1.664,1.094,0.490,0.887,0.829,��,7.5,�L
2017/10/21,03:00,0.874,1.383,0.892,1.665,1.092,0.490,0.887,0.829,���k��,7.5,�L
2017/10/21,03:10,0.872,1.382,0.895,1.665,1.094,0.488,0.888,0.829,���k��,6.6,�L
2017/10/21,03:20,0.874,1.384,0.893,1.666,1.094,0.491,0.888,0.830,��,6.7,�L
2017/10/21,03:30,0.875,1.382,0.894,1.664,1.095,0.490,0.889,0.828,��,5.8,�L
2017/10/21,03:40,0.874,1.382,0.893,1.668,1.096,0.491,0.886,0.829,��,6.3,�L
2017/10/21,03:50,0.875,1.385,0.894,1.665,1.098,0.489,0.886,0.830,���k��,5.8,�L
2017/10/21,04:00,0.874,1.386,0.894,1.667,1.097,0.489,0.889,0.830,���k��,6.0,��
2017/10/21,04:10,0.874,1.384,0.895,1.669,1.095,0.492,0.888,0.828,���k��,4.6,�L
2017/10/21,04:20,0.875,1.386,0.894,1.668,1.097,0.491,0.888,0.829,���k��,4.3,�L
2017/10/21,04:30,0.875,1.386,0.896,1.667,1.098,0.491,0.888,0.829,�k��,3.6,�L
2017/10/21,04:40,0.875,1.386,0.896,1.668,1.099,0.494,0.889,0.830,���k��,4.0,�L
2017/10/21,04:50,0.875,1.385,0.896,1.667,1.100,0.493,0.889,0.830,���k��,3.7,�L
2017/10/21,05:00,0.878,1.385,0.898,1.669,1.100,0.494,0.887,0.829,���k��,4.9,�L
2017/10/21,05:10,0.875,1.386,0.895,1.667,1.103,0.492,0.886,0.828,���k��,4.6,�L
2017/10/21,05:20,0.876,1.386,0.897,1.669,1.103,0.493,0.889,0.830,���k��,5.0,�L
2017/10/21,05:30,0.875,1.386,0.898,1.668,1.102,0.492,0.888,0.830,�k��,4.5,��
2017/10/21,05:40,0.874,1.385,0.900,1.667,1.102,0.491,0.888,0.830,�k��,4.6,��
2017/10/21,05:50,0.873,1.385,0.898,1.670,1.101,0.493,0.888,0.830,���k��,4.4,��
2017/10/21,06:00,0.875,1.385,0.895,1.669,1.103,0.492,0.889,0.830,���k��,3.6,�L
2017/10/21,06:10,0.873,1.388,0.895,1.669,1.105,0.491,0.890,0.831,���k��,4.8,�L
2017/10/21,06:20,0.876,1.386,0.896,1.670,1.104,0.491,0.888,0.831,���k��,4.3,�L
2017/10/21,06:30,0.873,1.385,0.898,1.672,1.105,0.491,0.889,0.830,���k��,4.9,�L
2017/10/21,06:40,0.874,1.389,0.899,1.669,1.107,0.491,0.890,0.832,���k��,5.0,�L
2017/10/21,06:50,0.877,1.387,0.898,1.669,1.106,0.491,0.888,0.831,��,4.0,�L
2017/10/21,07:00,0.876,1.382,0.898,1.668,1.104,0.492,0.887,0.827,���k��,4.3,�L
2017/10/21,07:10,0.870,1.375,0.896,1.658,1.098,0.489,0.882,0.825,���k��,6.0,�L
2017/10/21,07:20,0.869,1.367,0.892,1.659,1.096,0.490,0.884,0.825,�k��,6.1,�L
2017/10/21,07:30,0.869,1.368,0.896,1.659,1.097,0.489,0.885,0.824,�k��,6.0,�L
2017/10/21,07:40,0.871,1.367,0.895,1.659,1.097,0.489,0.884,0.825,�k��,5.5,�L
2017/10/21,07:50,0.870,1.370,0.895,1.661,1.098,0.491,0.887,0.825,�k��,5.3,��
2017/10/21,08:00,0.870,1.369,0.895,1.662,1.097,0.490,0.884,0.826,�k��,5.5,��
2017/10/21,08:10,0.871,1.371,0.897,1.662,1.098,0.489,0.885,0.826,�k��,5.2,��
2017/10/21,08:20,0.870,1.376,0.897,1.664,1.098,0.489,0.888,0.828,�k��,4.6,��
2017/10/21,08:30,0.872,1.377,0.896,1.663,1.100,0.489,0.885,0.827,�k��,3.9,��
2017/10/21,08:40,0.874,1.376,0.895,1.663,1.099,0.489,0.886,0.829,�k��,3.7,��
2017/10/21,08:50,0.872,1.376,0.897,1.665,1.103,0.488,0.887,0.827,�k��,4.8,��
2017/10/21,09:00,0.871,1.378,0.897,1.665,1.103,0.490,0.886,0.828,�k��,4.4,��
2017/10/21,09:10,0.872,1.377,0.897,1.665,1.103,0.489,0.888,0.828,�k��,4.1,�L
2017/10/21,09:20,0.871,1.380,0.897,1.667,1.105,0.489,0.887,0.827,�k��,4.3,�L
2017/10/21,09:30,0.874,1.379,0.898,1.668,1.104,0.489,0.890,0.826,�k��,3.6,�L
2017/10/21,09:40,0.872,1.377,0.896,1.672,1.105,0.489,0.888,0.828,�k��,3.8,�L
2017/10/21,09:50,0.870,1.377,0.898,1.670,1.104,0.492,0.889,0.828,�k��,4.3,�L
2017/10/21,10:00,0.874,1.380,0.897,1.670,1.106,0.489,0.889,0.828,�k��,3.3,�L
2017/10/21,10:10,0.874,1.379,0.899,1.671,1.107,0.491,0.888,0.828,�k�k��,4.3,�L
2017/10/21,10:20,0.872,1.377,0.898,1.671,1.108,0.492,0.889,0.828,�k�k��,4.4,�L
2017/10/21,10:30,0.872,1.377,0.899,1.669,1.103,0.492,0.889,0.830,�k,4.4,�L
2017/10/21,10:40,0.869,1.371,0.896,1.665,1.103,0.491,0.888,0.827,�k�k��,5.5,�L
2017/10/21,10:50,0.871,1.367,0.895,1.666,1.101,0.492,0.887,0.826,�k�k��,5.9,�L
2017/10/21,11:00,0.871,1.366,0.895,1.665,1.101,0.490,0.887,0.826,�k�k��,4.9,�L
2017/10/21,11:10,0.871,1.367,0.895,1.665,1.100,0.490,0.888,0.826,�k�k��,5.5,�L
2017/10/21,11:20,0.870,1.354,0.889,1.656,1.095,0.492,0.887,0.827,�k�k��,5.7,�L
2017/10/21,11:30,0.868,1.358,0.891,1.654,1.096,0.491,0.890,0.828,�k�k��,5.2,�L
2017/10/21,11:40,0.869,1.360,0.892,1.658,1.099,0.490,0.888,0.828,�k�k��,4.6,�L
2017/10/21,11:50,0.869,1.364,0.892,1.661,1.099,0.491,0.888,0.827,�k�k��,5.3,��
2017/10/21,12:00,0.870,1.366,0.896,1.660,1.102,0.490,0.889,0.825,�k�k��,5.3,��
2017/10/21,12:10,0.870,1.369,0.894,1.661,1.102,0.491,0.887,0.829,�k�k��,5.8,�L
2017/10/21,12:20,0.872,1.372,0.896,1.658,1.101,0.491,0.889,0.829,�k�k��,6.0,�L
2017/10/21,12:30,0.871,1.371,0.894,1.661,1.103,0.489,0.889,0.829,�k�k��,6.0,�L
2017/10/21,12:40,0.869,1.372,0.898,1.662,1.102,0.490,0.887,0.828,�k�k��,5.8,�L
2017/10/21,12:50,0.870,1.371,0.895,1.664,1.100,0.491,0.891,0.827,�k�k��,5.7,�L
2017/10/21,13:00,0.869,1.373,0.896,1.664,1.103,0.491,0.889,0.827,�k�k��,6.2,�L
2017/10/21,13:10,0.869,1.368,0.895,1.663,1.101,0.489,0.887,0.826,�k�k��,6.2,�L
2017/10/21,13:20,0.866,1.364,0.893,1.662,1.099,0.490,0.887,0.826,�k�k��,5.8,�L
2017/10/21,13:30,0.867,1.361,0.891,1.660,1.098,0.488,0.885,0.824,�k�k��,4.6,�L
2017/10/21,13:40,0.863,1.358,0.890,1.653,1.097,0.489,0.886,0.823,�k�k��,5.9,�L
2017/10/21,13:50,0.864,1.354,0.888,1.648,1.091,0.489,0.883,0.823,�k�k��,6.5,�L
2017/10/21,14:00,0.862,1.352,0.886,1.646,1.089,0.486,0.883,0.823,�k�k��,6.1,�L
2017/10/21,14:10,0.866,1.355,0.890,1.649,1.092,0.488,0.885,0.827,�k�k��,6.0,�L
2017/10/21,14:20,0.867,1.356,0.888,1.651,1.090,0.489,0.885,0.824,�k�k��,6.3,�L
2017/10/21,14:30,0.865,1.359,0.890,1.653,1.095,0.490,0.887,0.826,�k,4.8,�L
2017/10/21,14:40,0.867,1.362,0.888,1.651,1.098,0.490,0.886,0.826,�k,5.4,�L
2017/10/21,14:50,0.868,1.363,0.894,1.652,1.098,0.488,0.884,0.825,�k�k��,6.0,�L
2017/10/21,15:00,0.866,1.363,0.893,1.655,1.098,0.491,0.885,0.824,�k�k��,5.2,�L
2017/10/21,15:10,0.868,1.363,0.894,1.655,1.098,0.489,0.886,0.826,�k�k��,5.8,�L
2017/10/21,15:20,0.870,1.366,0.897,1.655,1.100,0.491,0.886,0.828,�k�k��,5.4,�L
2017/10/21,15:30,0.866,1.368,0.895,1.658,1.101,0.488,0.885,0.827,�k�k��,4.4,�L
2017/10/21,15:40,0.869,1.371,0.895,1.659,1.105,0.490,0.885,0.829,�k�k��,4.0,�L
2017/10/21,15:50,0.869,1.370,0.895,1.658,1.103,0.489,0.886,0.827,�k�k��,4.6,�L
2017/10/21,16:00,0.866,1.368,0.894,1.656,1.099,0.490,0.885,0.829,�k�k��,4.7,�L
2017/10/21,16:10,0.867,1.367,0.892,1.652,1.098,0.491,0.884,0.828,�k�k��,5.9,�L
2017/10/21,16:20,0.867,1.367,0.892,1.652,1.092,0.491,0.886,0.827,�k�k��,5.1,�L
2017/10/21,16:30,0.865,1.366,0.895,1.649,1.094,0.487,0.884,0.826,�k�k��,3.2,�L
2017/10/21,16:40,0.866,1.362,0.893,1.645,1.090,0.489,0.883,0.825,�k��,4.5,�L
2017/10/21,16:50,0.866,1.365,0.894,1.642,1.090,0.489,0.884,0.825,�k�k��,4.0,��
2017/10/21,17:00,0.867,1.367,0.894,1.648,1.094,0.490,0.884,0.826,�k�k��,3.8,��
2017/10/21,17:10,0.870,1.365,0.893,1.650,1.093,0.489,0.884,0.823,�k�k��,3.3,��
2017/10/21,17:20,0.870,1.367,0.894,1.649,1.096,0.490,0.886,0.827,�k�k��,2.9,��
2017/10/21,17:30,0.870,1.370,0.895,1.651,1.099,0.490,0.887,0.828,�k�k��,2.5,��
2017/10/21,17:40,0.869,1.371,0.896,1.654,1.098,0.489,0.887,0.828,�k��,2.2,��
2017/10/21,17:50,0.872,1.374,0.895,1.655,1.098,0.491,0.886,0.829,�k�k��,1.5,�L
2017/10/21,18:00,0.870,1.376,0.895,1.657,1.101,0.491,0.888,0.829,�k�k��,1.2,��
2017/10/21,18:10,0.872,1.375,0.896,1.656,1.103,0.490,0.887,0.831,�k�k��,2.3,��
2017/10/21,18:20,0.871,1.376,0.896,1.657,1.105,0.490,0.887,0.830,�k�k��,2.6,�L
2017/10/21,18:30,0.871,1.375,0.894,1.659,1.103,0.491,0.888,0.829,�k�k��,3.0,�L
2017/10/21,18:40,0.872,1.374,0.896,1.660,1.102,0.490,0.888,0.829,�k�k��,4.3,�L
2017/10/21,18:50,0.873,1.377,0.897,1.659,1.103,0.490,0.886,0.830,�k�k��,4.6,�L
2017/10/21,19:00,0.872,1.377,0.895,1.661,1.107,0.489,0.888,0.830,�k��,3.1,�L
2017/10/21,19:10,0.873,1.377,0.898,1.660,1.104,0.491,0.888,0.829,�k�k��,2.2,�L
2017/10/21,19:20,0.872,1.377,0.896,1.659,1.105,0.491,0.888,0.831,�k,3.5,�L
2017/10/21,19:30,0.872,1.374,0.896,1.661,1.102,0.492,0.887,0.830,�k�k��,4.8,�L
2017/10/21,19:40,0.872,1.373,0.893,1.660,1.103,0.491,0.887,0.829,�k�k��,4.9,�L
2017/10/21,19:50,0.872,1.373,0.893,1.656,1.102,0.491,0.887,0.828,�k�k��,4.3,�L
2017/10/21,20:00,0.870,1.365,0.893,1.651,1.101,0.490,0.886,0.827,�k��,3.1,�L
2017/10/21,20:10,0.864,1.358,0.891,1.641,1.092,0.489,0.883,0.826,�k�k��,2.6,�L
2017/10/21,20:20,0.858,1.351,0.889,1.643,1.089,0.490,0.883,0.825,�k�k��,3.0,�L
2017/10/21,20:30,0.859,1.353,0.888,1.640,1.088,0.490,0.881,0.824,�k�k��,3.7,�L
2017/10/21,20:40,0.854,1.348,0.889,1.634,1.088,0.486,0.882,0.823,�k�k��,2.6,�L
2017/10/21,20:50,0.858,1.350,0.889,1.637,1.085,0.486,0.880,0.823,�k,3.0,�L
2017/10/21,21:00,0.860,1.354,0.891,1.643,1.087,0.489,0.882,0.824,�k�k��,3.1,�L
2017/10/21,21:10,0.862,1.353,0.893,1.645,1.087,0.488,0.884,0.825,�k�k��,2.8,�L
2017/10/21,21:20,0.863,1.355,0.889,1.642,1.088,0.489,0.881,0.825,�k�k��,2.0,�L
2017/10/21,21:30,0.863,1.354,0.890,1.640,1.087,0.488,0.884,0.824,�k�k��,3.3,�L
2017/10/21,21:40,0.866,1.356,0.889,1.644,1.089,0.489,0.883,0.824,�k,3.0,�L
2017/10/21,21:50,0.865,1.355,0.889,1.643,1.090,0.489,0.884,0.824,�k,1.7,�L
2017/10/21,22:00,0.865,1.357,0.890,1.647,1.090,0.489,0.883,0.824,�k�k��,0.9,�L
2017/10/21,22:10,0.866,1.358,0.890,1.648,1.089,0.488,0.883,0.824,�k��,1.7,�L
2017/10/21,22:20,0.867,1.357,0.891,1.646,1.089,0.487,0.882,0.823,-,CALM,�L
2017/10/21,22:30,0.866,1.358,0.891,1.647,1.087,0.491,0.883,0.825,��,0.6,�L
2017/10/21,22:40,0.865,1.360,0.891,1.650,1.088,0.490,0.883,0.825,��쐼,0.9,�L
2017/10/21,22:50,0.860,1.354,0.887,1.644,1.087,0.489,0.882,0.825,���k��,1.4,�L
2017/10/21,23:00,0.863,1.353,0.890,1.646,1.089,0.488,0.882,0.825,��,2.0,�L
2017/10/21,23:10,0.866,1.354,0.890,1.645,1.088,0.489,0.884,0.825,��,1.1,�L
2017/10/21,23:20,0.865,1.361,0.892,1.648,1.091,0.489,0.882,0.824,-,CALM,�L
2017/10/21,23:30,0.867,1.357,0.892,1.648,1.089,0.490,0.884,0.825,-,CALM,�L
2017/10/21,23:40,0.868,1.360,0.892,1.649,1.090,0.490,0.883,0.825,���k��,1.4,�L
2017/10/21,23:50,0.869,1.362,0.893,1.652,1.091,0.489,0.883,0.823,���k��,2.9,�L
